Time,TemperatureF,DewpointF,PressureIn,WindDirection,WindDirectionDegrees,WindSpeedMPH,WindSpeedGustMPH,Humidity,HourlyPrecipIn,Conditions,Clouds,dailyrainin,SoftwareType,DateUTC
2013-07-27 00:02:00,74.4,70.6,29.94,NW,315,0.0,0.0,88,0.00,,---,0.00,VWS V14.01,2013-07-27 05:02:00,
2013-07-27 00:07:00,74.4,70.9,29.94,NW,315,0.0,0.0,89,0.00,,---,0.00,VWS V14.01,2013-07-27 05:07:00,
2013-07-27 00:12:00,74.4,70.9,29.94,NW,315,0.0,0.0,89,0.00,,---,0.00,VWS V14.01,2013-07-27 05:12:00,
2013-07-27 00:17:00,74.4,70.9,29.94,NW,315,0.0,0.0,89,0.00,,---,0.00,VWS V14.01,2013-07-27 05:17:00,
2013-07-27 00:23:00,74.4,70.9,29.94,NW,315,0.0,0.0,89,0.00,,---,0.00,VWS V14.01,2013-07-27 05:23:00,
2013-07-27 00:28:00,74.4,70.9,29.94,NW,315,0.0,0.0,89,0.00,,---,0.00,VWS V14.01,2013-07-27 05:28:00,
2013-07-27 00:33:00,74.4,70.9,29.94,NW,315,0.0,0.0,89,0.00,,---,0.00,VWS V14.01,2013-07-27 05:33:00,
2013-07-27 00:38:00,74.4,70.9,29.94,NW,315,0.0,0.0,89,0.00,,---,0.00,VWS V14.01,2013-07-27 05:38:00,
2013-07-27 00:43:00,74.4,71.3,29.94,NW,315,0.0,0.0,90,0.00,,---,0.00,VWS V14.01,2013-07-27 05:43:00,
2013-07-27 00:48:00,74.4,71.3,29.94,NW,315,0.0,0.0,90,0.00,,---,0.00,VWS V14.01,2013-07-27 05:48:00,
2013-07-27 00:53:00,74.2,71.1,29.94,NW,315,0.0,0.0,90,0.00,,---,0.00,VWS V14.01,2013-07-27 05:53:00,
2013-07-27 00:58:00,74.2,71.1,29.94,NW,315,0.0,0.0,90,0.00,,---,0.00,VWS V14.01,2013-07-27 05:58:00,
2013-07-27 01:03:00,74.2,71.1,29.94,NW,315,0.0,0.0,90,0.00,,---,0.00,VWS V14.01,2013-07-27 06:03:00,
2013-07-27 01:08:00,74.2,71.1,29.94,NW,315,0.0,0.0,90,0.00,,---,0.00,VWS V14.01,2013-07-27 06:08:00,
2013-07-27 01:13:00,74.2,71.1,29.91,NW,315,0.0,0.0,90,0.00,,---,0.00,VWS V14.01,2013-07-27 06:13:00,
2013-07-27 01:18:00,74.2,71.1,29.91,NW,315,0.0,0.0,90,0.00,,---,0.00,VWS V14.01,2013-07-27 06:18:00,
2013-07-27 01:23:00,74.2,71.1,29.91,NW,315,0.0,0.0,90,0.00,,---,0.00,VWS V14.01,2013-07-27 06:23:00,
2013-07-27 01:28:00,74.2,71.1,29.91,NW,315,0.0,0.0,90,0.00,,---,0.00,VWS V14.01,2013-07-27 06:28:00,
2013-07-27 01:33:00,74.2,71.1,29.91,NW,315,0.0,0.0,90,0.00,,---,0.00,VWS V14.01,2013-07-27 06:33:00,
2013-07-27 01:38:00,74.0,71.2,29.91,NW,315,0.0,0.0,91,0.00,,---,0.00,VWS V14.01,2013-07-27 06:38:00,
2013-07-27 01:43:00,74.0,71.2,29.91,NW,315,0.0,0.0,91,0.00,,---,0.00,VWS V14.01,2013-07-27 06:43:00,
2013-07-27 01:48:00,74.0,71.2,29.91,NW,315,0.0,0.0,91,0.00,,---,0.00,VWS V14.01,2013-07-27 06:48:00,
2013-07-27 01:53:00,74.0,71.2,29.91,NW,315,0.0,0.0,91,0.00,,---,0.00,VWS V14.01,2013-07-27 06:53:00,
2013-07-27 01:58:00,74.0,71.2,29.91,NW,315,0.0,0.0,91,0.00,,---,0.00,VWS V14.01,2013-07-27 06:58:00,
2013-07-27 02:03:00,74.0,71.2,29.91,NW,315,0.0,0.0,91,0.00,,---,0.00,VWS V14.01,2013-07-27 07:03:00,
2013-07-27 02:08:00,74.0,71.2,29.91,NW,315,0.0,0.0,91,0.00,,---,0.00,VWS V14.01,2013-07-27 07:08:00,
2013-07-27 02:13:00,74.0,70.9,29.91,NW,315,0.0,0.0,90,0.00,,---,0.00,VWS V14.01,2013-07-27 07:13:00,
2013-07-27 02:18:00,74.0,70.9,29.91,NW,315,0.0,0.0,90,0.00,,---,0.00,VWS V14.01,2013-07-27 07:18:00,
2013-07-27 02:23:00,74.0,70.9,29.91,NW,315,0.0,0.0,90,0.00,,---,0.00,VWS V14.01,2013-07-27 07:23:00,
2013-07-27 02:28:00,74.0,70.9,29.91,NW,315,0.0,0.0,90,0.00,,---,0.00,VWS V14.01,2013-07-27 07:28:00,
2013-07-27 02:33:00,73.9,70.8,29.91,NW,315,0.0,0.0,90,0.00,,---,0.00,VWS V14.01,2013-07-27 07:33:00,
2013-07-27 02:38:00,73.9,70.8,29.91,NW,315,0.0,0.0,90,0.00,,---,0.00,VWS V14.01,2013-07-27 07:38:00,
2013-07-27 02:43:00,73.9,70.4,29.91,NW,315,0.0,0.0,89,0.00,,---,0.00,VWS V14.01,2013-07-27 07:43:00,
2013-07-27 02:48:00,73.9,70.4,29.91,NW,315,0.0,0.0,89,0.00,,---,0.00,VWS V14.01,2013-07-27 07:48:00,
2013-07-27 02:53:00,73.9,70.4,29.91,NW,315,0.0,0.0,89,0.00,,---,0.00,VWS V14.01,2013-07-27 07:53:00,
2013-07-27 02:58:00,73.9,70.4,29.91,NW,315,0.0,0.0,89,0.00,,---,0.00,VWS V14.01,2013-07-27 07:58:00,
2013-07-27 03:03:00,73.9,70.4,29.91,NW,315,0.0,0.0,89,0.00,,---,0.00,VWS V14.01,2013-07-27 08:03:00,
2013-07-27 03:08:00,73.9,70.4,29.91,NW,315,0.0,0.0,89,0.00,,---,0.00,VWS V14.01,2013-07-27 08:08:00,
2013-07-27 03:13:00,73.9,70.4,29.91,NW,315,0.0,0.0,89,0.00,,---,0.00,VWS V14.01,2013-07-27 08:13:00,
2013-07-27 03:18:00,73.9,70.4,29.91,NW,315,0.0,0.0,89,0.00,,---,0.00,VWS V14.01,2013-07-27 08:18:00,
2013-07-27 03:23:00,73.9,70.4,29.91,NW,315,0.0,0.0,89,0.00,,---,0.00,VWS V14.01,2013-07-27 08:23:00,
2013-07-27 03:28:00,73.9,70.4,29.88,NW,315,0.0,0.0,89,0.00,,---,0.00,VWS V14.01,2013-07-27 08:28:00,
2013-07-27 03:33:00,73.5,69.7,29.88,NW,315,0.0,0.0,88,0.00,,---,0.00,VWS V14.01,2013-07-27 08:33:00,
2013-07-27 03:38:00,73.5,69.7,29.88,NW,315,0.0,0.0,88,0.00,,---,0.00,VWS V14.01,2013-07-27 08:38:00,
2013-07-27 03:43:00,73.5,69.7,29.88,NW,315,0.0,0.0,88,0.00,,---,0.00,VWS V14.01,2013-07-27 08:43:00,
2013-07-27 03:48:00,73.5,69.7,29.88,NW,315,0.0,0.0,88,0.00,,---,0.00,VWS V14.01,2013-07-27 08:48:00,
2013-07-27 03:53:00,73.5,69.7,29.88,WNW,292,0.0,0.0,88,0.00,,---,0.00,VWS V14.01,2013-07-27 08:53:00,
2013-07-27 03:58:00,72.8,69.7,29.88,WSW,248,0.0,0.0,90,0.00,,---,0.00,VWS V14.01,2013-07-27 08:58:00,
2013-07-27 04:03:00,72.6,69.5,29.91,WNW,292,0.0,0.0,90,0.08,,---,0.08,VWS V14.01,2013-07-27 09:03:00,
2013-07-27 04:08:00,72.2,69.5,29.91,WNW,292,0.0,0.0,91,0.17,,---,0.17,VWS V14.01,2013-07-27 09:08:00,
2013-07-27 04:13:00,71.7,68.9,29.91,NNW,338,0.0,0.0,91,0.25,,---,0.25,VWS V14.01,2013-07-27 09:13:00,
2013-07-27 04:18:00,71.5,68.8,29.91,NNW,338,0.0,0.0,91,0.29,,---,0.29,VWS V14.01,2013-07-27 09:18:00,
2013-07-27 04:23:00,71.3,68.9,29.91,NNE,22,0.0,0.0,92,0.29,,---,0.29,VWS V14.01,2013-07-27 09:23:00,
2013-07-27 04:28:00,71.3,68.9,29.94,NNE,22,0.0,0.0,92,0.33,,---,0.33,VWS V14.01,2013-07-27 09:28:00,
2013-07-27 04:33:00,71.2,68.7,29.94,NNE,22,0.0,0.0,92,0.33,,---,0.33,VWS V14.01,2013-07-27 09:33:00,
2013-07-27 04:38:00,71.2,68.7,29.94,NNE,22,0.0,0.0,92,0.33,,---,0.33,VWS V14.01,2013-07-27 09:38:00,
2013-07-27 04:43:00,71.0,68.9,29.91,NNE,22,0.0,0.0,93,0.37,,---,0.37,VWS V14.01,2013-07-27 09:43:00,
2013-07-27 04:48:00,71.0,68.9,29.91,NNE,22,0.0,0.0,93,0.37,,---,0.37,VWS V14.01,2013-07-27 09:48:00,
2013-07-27 04:53:00,71.0,68.9,29.91,NNE,22,0.0,0.0,93,0.37,,---,0.37,VWS V14.01,2013-07-27 09:53:00,
2013-07-27 04:58:00,70.8,69.0,29.94,NE,45,0.0,0.0,94,0.42,,---,0.42,VWS V14.01,2013-07-27 09:58:00,
2013-07-27 05:03:00,70.8,69.0,29.94,NE,45,0.0,0.0,94,0.38,,---,0.46,VWS V14.01,2013-07-27 10:03:00,
2013-07-27 05:08:00,70.6,68.8,29.94,NE,45,0.0,0.0,94,0.33,,---,0.50,VWS V14.01,2013-07-27 10:08:00,
2013-07-27 05:13:00,70.4,68.6,29.91,NE,45,0.0,0.0,94,0.29,,---,0.54,VWS V14.01,2013-07-27 10:13:00,
2013-07-27 05:18:00,70.4,68.6,29.91,NW,315,0.0,0.0,94,0.29,,---,0.58,VWS V14.01,2013-07-27 10:18:00,
2013-07-27 05:23:00,70.3,68.8,29.91,NE,45,0.0,0.0,95,0.41,,---,0.70,VWS V14.01,2013-07-27 10:23:00,
2013-07-27 05:28:00,70.3,68.8,29.94,NNW,338,0.0,0.0,95,0.42,,---,0.75,VWS V14.01,2013-07-27 10:28:00,
2013-07-27 05:33:00,70.1,68.6,29.94,NE,45,0.0,0.0,95,0.46,,---,0.79,VWS V14.01,2013-07-27 10:33:00,
2013-07-27 05:38:00,70.1,68.6,29.94,SW,225,0.0,0.0,95,0.46,,---,0.79,VWS V14.01,2013-07-27 10:38:00,
2013-07-27 05:43:00,70.1,68.9,29.94,WNW,292,0.0,0.0,96,0.46,,---,0.83,VWS V14.01,2013-07-27 10:43:00,
2013-07-27 05:48:00,70.3,69.1,29.94,SSE,158,0.0,0.0,96,0.46,,---,0.83,VWS V14.01,2013-07-27 10:48:00,
2013-07-27 05:53:00,70.1,68.9,29.94,ENE,68,0.0,0.0,96,0.46,,---,0.83,VWS V14.01,2013-07-27 10:53:00,
2013-07-27 05:58:00,70.3,69.1,29.94,ENE,68,0.0,0.0,96,0.46,,---,0.83,VWS V14.01,2013-07-27 10:58:00,
2013-07-27 06:03:00,70.3,69.1,29.94,ENE,68,0.0,0.0,96,0.37,,---,0.83,VWS V14.01,2013-07-27 11:03:00,
2013-07-27 06:08:00,70.3,69.1,29.94,ENE,68,0.0,0.0,96,0.33,,---,0.83,VWS V14.01,2013-07-27 11:08:00,
2013-07-27 06:13:00,70.3,69.1,29.94,ESE,112,0.0,0.0,96,0.29,,---,0.83,VWS V14.01,2013-07-27 11:13:00,
2013-07-27 06:18:00,70.3,69.1,29.94,ESE,112,0.0,0.0,96,0.25,,---,0.83,VWS V14.01,2013-07-27 11:18:00,
2013-07-27 06:23:00,70.3,69.1,29.94,ENE,68,0.0,0.0,96,0.16,,---,0.83,VWS V14.01,2013-07-27 11:23:00,
2013-07-27 06:28:00,70.3,69.4,29.91,ENE,68,0.0,0.0,97,0.08,,---,0.83,VWS V14.01,2013-07-27 11:28:00,
2013-07-27 06:33:00,70.3,69.4,29.91,NNE,22,0.0,0.0,97,0.04,,---,0.83,VWS V14.01,2013-07-27 11:33:00,
2013-07-27 06:39:00,70.3,69.4,29.91,NE,45,0.0,0.0,97,0.04,,---,0.83,VWS V14.01,2013-07-27 11:39:00,
2013-07-27 06:44:00,70.3,69.4,29.91,NE,45,0.0,0.0,97,0.00,,---,0.83,VWS V14.01,2013-07-27 11:44:00,
2013-07-27 06:49:00,70.3,69.4,29.91,NE,45,0.0,0.0,97,0.00,,---,0.83,VWS V14.01,2013-07-27 11:49:00,
2013-07-27 06:54:00,70.3,69.4,29.91,NE,45,0.0,0.0,97,0.00,,---,0.83,VWS V14.01,2013-07-27 11:54:00,
2013-07-27 06:59:00,70.3,69.4,29.91,NE,45,0.0,0.0,97,0.00,,---,0.83,VWS V14.01,2013-07-27 11:59:00,
2013-07-27 07:04:00,70.3,69.4,29.91,NE,45,0.0,0.0,97,0.00,,---,0.83,VWS V14.01,2013-07-27 12:04:00,
2013-07-27 07:09:00,70.4,69.6,29.91,NE,45,0.0,0.0,97,0.00,,---,0.83,VWS V14.01,2013-07-27 12:09:00,
2013-07-27 07:14:00,70.4,69.6,29.91,NE,45,0.0,0.0,97,0.00,,---,0.83,VWS V14.01,2013-07-27 12:14:00,
2013-07-27 07:19:00,70.4,69.6,29.91,ENE,68,0.0,0.0,97,0.00,,---,0.83,VWS V14.01,2013-07-27 12:19:00,
2013-07-27 07:24:00,70.6,69.7,29.91,ENE,68,0.0,0.0,97,0.00,,---,0.83,VWS V14.01,2013-07-27 12:24:00,
2013-07-27 07:29:00,70.6,69.7,29.91,NNE,22,0.0,0.0,97,0.00,,---,0.83,VWS V14.01,2013-07-27 12:29:00,
2013-07-27 07:34:00,70.8,69.9,29.91,NW,315,0.0,0.0,97,0.00,,---,0.83,VWS V14.01,2013-07-27 12:34:00,
2013-07-27 07:39:00,70.8,69.9,29.91,NE,45,0.0,0.0,97,0.00,,---,0.83,VWS V14.01,2013-07-27 12:39:00,
2013-07-27 07:44:00,71.0,70.1,29.91,WSW,248,0.0,0.0,97,0.00,,---,0.83,VWS V14.01,2013-07-27 12:44:00,
2013-07-27 07:49:00,71.0,70.1,29.91,ESE,112,0.0,0.0,97,0.00,,---,0.83,VWS V14.01,2013-07-27 12:49:00,
2013-07-27 07:54:00,71.2,70.3,29.91,ESE,112,0.0,0.0,97,0.00,,---,0.83,VWS V14.01,2013-07-27 12:54:00,
2013-07-27 07:59:00,71.3,70.4,29.91,ESE,112,0.0,0.0,97,0.00,,---,0.83,VWS V14.01,2013-07-27 12:59:00,
2013-07-27 08:04:00,71.5,70.6,29.91,SE,135,0.0,0.0,97,0.00,,---,0.83,VWS V14.01,2013-07-27 13:04:00,
2013-07-27 08:09:00,71.5,70.6,29.91,ESE,112,0.0,0.0,97,0.00,,---,0.83,VWS V14.01,2013-07-27 13:09:00,
2013-07-27 08:14:00,71.7,70.8,29.91,ESE,112,0.0,0.0,97,0.00,,---,0.83,VWS V14.01,2013-07-27 13:14:00,
2013-07-27 08:19:00,71.9,71.3,29.91,SE,135,0.0,0.0,98,0.00,,---,0.83,VWS V14.01,2013-07-27 13:19:00,
2013-07-27 08:24:00,72.1,71.5,29.91,ESE,112,0.0,0.0,98,0.00,,---,0.83,VWS V14.01,2013-07-27 13:24:00,
2013-07-27 08:29:00,72.2,71.7,29.91,SSE,158,0.0,0.0,98,0.00,,---,0.83,VWS V14.01,2013-07-27 13:29:00,
2013-07-27 08:34:00,72.2,71.7,29.91,WSW,248,0.0,0.0,98,0.00,,---,0.83,VWS V14.01,2013-07-27 13:34:00,
2013-07-27 08:39:00,72.4,71.8,29.91,SE,135,0.0,0.0,98,0.00,,---,0.83,VWS V14.01,2013-07-27 13:39:00,
2013-07-27 08:44:00,72.4,71.8,29.91,ESE,112,0.0,0.0,98,0.00,,---,0.83,VWS V14.01,2013-07-27 13:44:00,
2013-07-27 08:49:00,72.4,71.5,29.91,SSE,158,0.0,0.0,97,0.00,,---,0.83,VWS V14.01,2013-07-27 13:49:00,
2013-07-27 08:54:00,72.4,71.8,29.91,SE,135,0.0,0.0,98,0.00,,---,0.83,VWS V14.01,2013-07-27 13:54:00,
2013-07-27 08:59:00,72.4,71.5,29.91,SSE,158,0.0,0.0,97,0.00,,---,0.83,VWS V14.01,2013-07-27 13:59:00,
2013-07-27 09:04:00,72.6,71.7,29.91,ESE,112,0.0,0.0,97,0.00,,---,0.83,VWS V14.01,2013-07-27 14:04:00,
2013-07-27 09:09:00,72.6,71.7,29.91,ESE,112,0.0,0.0,97,0.00,,---,0.83,VWS V14.01,2013-07-27 14:09:00,
2013-07-27 09:14:00,72.6,71.7,29.91,ESE,112,0.0,0.0,97,0.00,,---,0.83,VWS V14.01,2013-07-27 14:14:00,
2013-07-27 09:19:00,72.8,71.9,29.91,ESE,112,0.0,0.0,97,0.00,,---,0.83,VWS V14.01,2013-07-27 14:19:00,
2013-07-27 09:24:00,72.8,71.9,29.91,WSW,248,0.0,0.0,97,0.00,,---,0.83,VWS V14.01,2013-07-27 14:24:00,
2013-07-27 09:29:00,73.0,72.1,29.91,WSW,248,0.0,0.0,97,0.00,,---,0.83,VWS V14.01,2013-07-27 14:29:00,
2013-07-27 09:34:00,73.0,72.1,29.91,WSW,248,0.0,0.0,97,0.00,,---,0.83,VWS V14.01,2013-07-27 14:34:00,
2013-07-27 09:39:00,73.1,72.2,29.91,WSW,248,0.0,0.0,97,0.00,,---,0.83,VWS V14.01,2013-07-27 14:39:00,
2013-07-27 09:44:00,73.1,72.2,29.91,WSW,248,0.0,0.0,97,0.00,,---,0.83,VWS V14.01,2013-07-27 14:44:00,
2013-07-27 09:49:00,73.3,72.4,29.91,WSW,248,0.0,0.0,97,0.00,,---,0.83,VWS V14.01,2013-07-27 14:49:00,
2013-07-27 09:54:00,73.3,72.4,29.91,WSW,248,0.0,0.0,97,0.00,,---,0.83,VWS V14.01,2013-07-27 14:54:00,
2013-07-27 09:59:00,73.5,72.6,29.91,WSW,248,0.0,0.0,97,0.00,,---,0.83,VWS V14.01,2013-07-27 14:59:00,
2013-07-27 10:04:00,73.5,72.6,29.91,WSW,248,0.0,0.0,97,0.00,,---,0.83,VWS V14.01,2013-07-27 15:04:00,
2013-07-27 10:09:00,73.7,72.8,29.91,WSW,248,0.0,0.0,97,0.00,,---,0.83,VWS V14.01,2013-07-27 15:09:00,
2013-07-27 10:14:00,73.7,72.8,29.91,WSW,248,0.0,0.0,97,0.00,,---,0.83,VWS V14.01,2013-07-27 15:14:00,
2013-07-27 10:19:00,73.9,73.0,29.91,ESE,112,0.0,0.0,97,0.00,,---,0.83,VWS V14.01,2013-07-27 15:19:00,
2013-07-27 10:24:00,73.9,73.0,29.91,ESE,112,0.0,0.0,97,0.00,,---,0.83,VWS V14.01,2013-07-27 15:24:00,
2013-07-27 10:29:00,73.7,72.8,29.91,ESE,112,0.0,0.0,97,0.00,,---,0.83,VWS V14.01,2013-07-27 15:29:00,
2013-07-27 10:34:00,73.7,72.8,29.91,ESE,112,0.0,0.0,97,0.00,,---,0.83,VWS V14.01,2013-07-27 15:34:00,
2013-07-27 10:39:00,73.9,73.0,29.91,ESE,112,0.0,0.0,97,0.00,,---,0.83,VWS V14.01,2013-07-27 15:39:00,
2013-07-27 10:44:00,73.9,73.0,29.91,ESE,112,0.0,0.0,97,0.00,,---,0.83,VWS V14.01,2013-07-27 15:44:00,
2013-07-27 10:49:00,74.0,73.1,29.91,ESE,112,0.0,0.0,97,0.00,,---,0.83,VWS V14.01,2013-07-27 15:49:00,
2013-07-27 10:54:00,74.4,73.5,29.91,North,0,0.0,0.0,97,0.00,,---,0.83,VWS V14.01,2013-07-27 15:54:00,
2013-07-27 10:59:00,74.6,73.7,29.91,SE,135,0.0,0.0,97,0.00,,---,0.83,VWS V14.01,2013-07-27 15:59:00,
2013-07-27 11:04:00,74.8,73.9,29.91,SSE,158,0.0,0.0,97,0.00,,---,0.83,VWS V14.01,2013-07-27 16:04:00,
2013-07-27 11:09:00,74.9,73.7,29.91,East,90,0.0,0.0,96,0.00,,---,0.83,VWS V14.01,2013-07-27 16:09:00,
2013-07-27 11:14:00,74.9,73.7,29.88,ESE,112,0.0,0.0,96,0.00,,---,0.83,VWS V14.01,2013-07-27 16:14:00,
2013-07-27 11:19:00,74.9,73.7,29.88,SE,135,0.0,0.0,96,0.00,,---,0.83,VWS V14.01,2013-07-27 16:19:00,
2013-07-27 11:24:00,74.9,73.7,29.88,ENE,68,0.0,0.0,96,0.00,,---,0.83,VWS V14.01,2013-07-27 16:24:00,
2013-07-27 11:29:00,75.5,74.3,29.91,ENE,68,0.0,0.0,96,0.00,,---,0.83,VWS V14.01,2013-07-27 16:29:00,
2013-07-27 11:34:00,75.8,74.6,29.91,North,0,0.0,0.0,96,0.00,,---,0.83,VWS V14.01,2013-07-27 16:34:00,
2013-07-27 11:39:00,75.8,74.6,29.91,SSE,158,0.0,0.0,96,0.00,,---,0.83,VWS V14.01,2013-07-27 16:39:00,
2013-07-27 11:44:00,76.0,74.8,29.88,SSW,202,0.0,0.0,96,0.00,,---,0.83,VWS V14.01,2013-07-27 16:44:00,
2013-07-27 11:49:00,76.4,74.8,29.88,ENE,68,0.0,0.0,95,0.00,,---,0.83,VWS V14.01,2013-07-27 16:49:00,
2013-07-27 11:54:00,76.6,75.0,29.88,ESE,112,0.0,0.0,95,0.00,,---,0.83,VWS V14.01,2013-07-27 16:54:00,
2013-07-27 11:59:00,76.7,75.2,29.88,NE,45,0.0,0.0,95,0.00,,---,0.83,VWS V14.01,2013-07-27 16:59:00,
2013-07-27 12:04:00,77.1,75.2,29.88,ENE,68,0.0,0.0,94,0.00,,---,0.83,VWS V14.01,2013-07-27 17:04:00,
2013-07-27 12:09:00,77.1,75.2,29.88,East,90,0.0,0.0,94,0.00,,---,0.83,VWS V14.01,2013-07-27 17:09:00,
2013-07-27 12:14:00,78.0,76.1,29.88,ENE,68,0.0,0.0,94,0.00,,---,0.83,VWS V14.01,2013-07-27 17:14:00,
2013-07-27 12:19:00,78.2,76.0,29.88,WSW,248,0.0,0.0,93,0.00,,---,0.83,VWS V14.01,2013-07-27 17:19:00,
2013-07-27 12:24:00,78.0,75.5,29.88,SSW,202,0.0,0.0,92,0.00,,---,0.83,VWS V14.01,2013-07-27 17:24:00,
2013-07-27 12:29:00,77.6,75.1,29.88,SSW,202,0.0,0.0,92,0.00,,---,0.83,VWS V14.01,2013-07-27 17:29:00,
2013-07-27 12:34:00,77.5,75.0,29.88,WSW,248,0.0,0.0,92,0.00,,---,0.83,VWS V14.01,2013-07-27 17:34:00,
2013-07-27 12:39:00,77.3,74.8,29.88,ESE,112,0.0,0.0,92,0.00,,---,0.83,VWS V14.01,2013-07-27 17:39:00,
2013-07-27 12:44:00,77.3,74.8,29.88,SSE,158,0.0,0.0,92,0.00,,---,0.83,VWS V14.01,2013-07-27 17:44:00,
2013-07-27 12:49:00,77.3,75.1,29.88,SSE,158,0.0,0.0,93,0.00,,---,0.83,VWS V14.01,2013-07-27 17:49:00,
2013-07-27 12:54:00,77.1,74.6,29.88,SSE,158,0.0,0.0,92,0.00,,---,0.83,VWS V14.01,2013-07-27 17:54:00,
2013-07-27 12:59:00,76.7,74.2,29.88,SSE,158,0.0,0.0,92,0.04,,---,0.87,VWS V14.01,2013-07-27 17:59:00,
2013-07-27 13:04:00,76.2,73.4,29.88,SSE,158,0.0,0.0,91,0.04,,---,0.87,VWS V14.01,2013-07-27 18:04:00,
2013-07-27 13:09:00,75.8,73.3,29.88,ESE,112,0.0,0.0,92,0.04,,---,0.87,VWS V14.01,2013-07-27 18:09:00,
2013-07-27 13:14:00,75.5,73.0,29.88,West,270,0.0,0.0,92,0.08,,---,0.91,VWS V14.01,2013-07-27 18:14:00,
2013-07-27 13:19:00,75.3,73.1,29.88,West,270,0.0,0.0,93,0.08,,---,0.91,VWS V14.01,2013-07-27 18:19:00,
2013-07-27 13:24:00,75.3,73.1,29.88,NNE,22,0.0,0.0,93,0.13,,---,0.96,VWS V14.01,2013-07-27 18:24:00,
2013-07-27 13:29:00,75.5,73.3,29.88,ESE,112,0.0,0.0,93,0.13,,---,0.96,VWS V14.01,2013-07-27 18:29:00,
2013-07-27 13:34:00,75.8,74.0,29.88,NE,45,0.0,0.0,94,0.13,,---,0.96,VWS V14.01,2013-07-27 18:34:00,
2013-07-27 13:39:00,76.4,74.5,29.88,ENE,68,0.0,0.0,94,0.13,,---,0.96,VWS V14.01,2013-07-27 18:39:00,
2013-07-27 13:44:00,76.7,74.9,29.88,ESE,112,0.0,0.0,94,0.13,,---,0.96,VWS V14.01,2013-07-27 18:44:00,
2013-07-27 13:49:00,77.1,75.2,29.88,ENE,68,0.0,0.0,94,0.13,,---,0.96,VWS V14.01,2013-07-27 18:49:00,
2013-07-27 13:54:00,77.5,75.9,29.88,NE,45,0.0,0.0,95,0.13,,---,0.96,VWS V14.01,2013-07-27 18:54:00,
2013-07-27 13:59:00,77.6,75.8,29.85,NE,45,0.0,0.0,94,0.09,,---,0.96,VWS V14.01,2013-07-27 18:59:00,
2013-07-27 14:04:00,77.8,75.3,29.85,NE,45,0.0,0.0,92,0.09,,---,0.96,VWS V14.01,2013-07-27 19:04:00,
2013-07-27 14:09:00,78.2,75.7,29.85,ENE,68,0.0,0.0,92,0.09,,---,0.96,VWS V14.01,2013-07-27 19:09:00,
2013-07-27 14:14:00,79.1,76.9,29.85,East,90,0.0,0.0,93,0.05,,---,0.96,VWS V14.01,2013-07-27 19:14:00,
2013-07-27 14:19:00,79.3,76.7,29.85,SSE,158,0.0,0.0,92,0.05,,---,0.96,VWS V14.01,2013-07-27 19:19:00,
2013-07-27 14:24:00,79.3,76.4,29.85,ENE,68,0.0,0.0,91,0.00,,---,0.96,VWS V14.01,2013-07-27 19:24:00,
2013-07-27 14:29:00,79.1,76.2,29.85,South,180,0.0,0.0,91,0.00,,---,0.96,VWS V14.01,2013-07-27 19:29:00,
2013-07-27 14:34:00,78.9,75.4,29.85,ENE,68,0.0,0.0,89,0.00,,---,0.96,VWS V14.01,2013-07-27 19:34:00,
2013-07-27 14:39:00,78.7,75.5,29.85,ENE,68,0.0,0.0,90,0.00,,---,0.96,VWS V14.01,2013-07-27 19:39:00,
2013-07-27 14:45:00,78.2,75.0,29.85,ENE,68,0.0,0.0,90,0.00,,---,0.96,VWS V14.01,2013-07-27 19:45:00,
2013-07-27 14:50:00,77.8,74.7,29.85,SSE,158,0.0,0.0,90,0.00,,---,0.96,VWS V14.01,2013-07-27 19:50:00,
2013-07-27 14:55:00,77.6,74.5,29.85,SSE,158,0.0,0.0,90,0.00,,---,0.96,VWS V14.01,2013-07-27 19:55:00,
2013-07-27 15:00:00,77.6,74.5,29.85,SE,135,0.0,0.0,90,0.00,,---,0.96,VWS V14.01,2013-07-27 20:00:00,
2013-07-27 15:05:00,77.8,74.7,29.85,NNW,338,0.0,0.0,90,0.00,,---,0.96,VWS V14.01,2013-07-27 20:05:00,
2013-07-27 15:10:00,78.0,74.8,29.85,South,180,0.0,0.0,90,0.00,,---,0.96,VWS V14.01,2013-07-27 20:10:00,
2013-07-27 15:15:00,77.8,74.7,29.85,ESE,112,0.0,0.0,90,0.00,,---,0.96,VWS V14.01,2013-07-27 20:15:00,
2013-07-27 15:20:00,77.8,74.7,29.85,NE,45,0.0,0.0,90,0.00,,---,0.96,VWS V14.01,2013-07-27 20:20:00,
2013-07-27 15:25:00,77.6,74.5,29.85,NE,45,0.0,0.0,90,0.00,,---,0.96,VWS V14.01,2013-07-27 20:25:00,
2013-07-27 15:30:00,77.5,74.3,29.85,NE,45,0.0,0.0,90,0.00,,---,0.96,VWS V14.01,2013-07-27 20:30:00,
2013-07-27 15:35:00,77.3,74.1,29.85,NE,45,0.0,0.0,90,0.00,,---,0.96,VWS V14.01,2013-07-27 20:35:00,
2013-07-27 15:40:00,77.1,73.9,29.85,NE,45,0.0,0.0,90,0.00,,---,0.96,VWS V14.01,2013-07-27 20:40:00,
2013-07-27 15:45:00,76.9,74.1,29.85,NE,45,0.0,0.0,91,0.00,,---,0.96,VWS V14.01,2013-07-27 20:45:00,
2013-07-27 15:50:00,76.9,74.1,29.85,NE,45,0.0,0.0,91,0.00,,---,0.96,VWS V14.01,2013-07-27 20:50:00,
2013-07-27 15:55:00,76.7,74.2,29.85,East,90,0.0,0.0,92,0.00,,---,0.96,VWS V14.01,2013-07-27 20:55:00,
2013-07-27 16:00:00,76.7,74.2,29.85,SE,135,0.0,0.0,92,0.00,,---,0.96,VWS V14.01,2013-07-27 21:00:00,
2013-07-27 16:05:00,76.7,74.2,29.85,SE,135,0.0,0.0,92,0.00,,---,0.96,VWS V14.01,2013-07-27 21:05:00,
2013-07-27 16:10:00,76.7,74.6,29.85,SSE,158,0.0,0.0,93,0.00,,---,0.96,VWS V14.01,2013-07-27 21:10:00,
2013-07-27 16:15:00,76.7,74.6,29.85,SSE,158,0.0,0.0,93,0.00,,---,0.96,VWS V14.01,2013-07-27 21:15:00,
2013-07-27 16:20:00,76.7,74.6,29.85,SE,135,0.0,0.0,93,0.04,,---,1.00,VWS V14.01,2013-07-27 21:20:00,
2013-07-27 16:25:00,76.7,74.9,29.85,SE,135,0.0,0.0,94,0.04,,---,1.00,VWS V14.01,2013-07-27 21:25:00,
2013-07-27 16:30:00,76.7,74.9,29.85,SE,135,0.0,0.0,94,0.04,,---,1.00,VWS V14.01,2013-07-27 21:30:00,
2013-07-27 16:35:00,76.7,74.9,29.85,SE,135,0.0,0.0,94,0.04,,---,1.00,VWS V14.01,2013-07-27 21:35:00,
2013-07-27 16:40:00,76.7,74.9,29.85,SSE,158,0.0,0.0,94,0.04,,---,1.00,VWS V14.01,2013-07-27 21:40:00,
2013-07-27 16:45:00,76.7,74.9,29.85,ENE,68,0.0,0.0,94,0.04,,---,1.00,VWS V14.01,2013-07-27 21:45:00,
2013-07-27 16:50:00,76.7,74.6,29.85,NNE,22,0.0,0.0,93,0.04,,---,1.00,VWS V14.01,2013-07-27 21:50:00,
2013-07-27 16:55:00,76.7,74.9,29.85,ESE,112,0.0,0.0,94,0.04,,---,1.00,VWS V14.01,2013-07-27 21:55:00,
2013-07-27 17:00:00,76.6,74.7,29.85,NW,315,0.0,0.0,94,0.04,,---,1.00,VWS V14.01,2013-07-27 22:00:00,
2013-07-27 17:05:00,76.6,74.7,29.85,East,90,0.0,0.0,94,0.04,,---,1.00,VWS V14.01,2013-07-27 22:05:00,
2013-07-27 17:10:00,76.4,74.5,29.85,ESE,112,0.0,0.0,94,0.04,,---,1.00,VWS V14.01,2013-07-27 22:10:00,
2013-07-27 17:15:00,76.2,74.3,29.85,ENE,68,0.0,0.0,94,0.04,,---,1.00,VWS V14.01,2013-07-27 22:15:00,
2013-07-27 17:20:00,76.2,74.3,29.85,ENE,68,0.0,0.0,94,0.00,,---,1.00,VWS V14.01,2013-07-27 22:20:00,
2013-07-27 17:25:00,76.2,74.7,29.85,ENE,68,0.0,0.0,95,0.00,,---,1.00,VWS V14.01,2013-07-27 22:25:00,
2013-07-27 17:30:00,76.2,74.7,29.85,ENE,68,0.0,0.0,95,0.00,,---,1.00,VWS V14.01,2013-07-27 22:30:00,
2013-07-27 17:35:00,76.0,74.5,29.85,ENE,68,0.0,0.0,95,0.00,,---,1.00,VWS V14.01,2013-07-27 22:35:00,
2013-07-27 17:40:00,75.8,74.3,29.85,ENE,68,0.0,0.0,95,0.00,,---,1.00,VWS V14.01,2013-07-27 22:40:00,
2013-07-27 17:45:00,75.8,74.3,29.85,NNE,22,0.0,0.0,95,0.00,,---,1.00,VWS V14.01,2013-07-27 22:45:00,
2013-07-27 17:50:00,75.8,74.3,29.85,NNE,22,0.0,0.0,95,0.00,,---,1.00,VWS V14.01,2013-07-27 22:50:00,
2013-07-27 17:55:00,75.7,74.1,29.85,NE,45,0.0,0.0,95,0.00,,---,1.00,VWS V14.01,2013-07-27 22:55:00,
2013-07-27 18:00:00,75.7,74.1,29.85,ENE,68,0.0,0.0,95,0.00,,---,1.00,VWS V14.01,2013-07-27 23:00:00,
2013-07-27 18:05:00,75.5,73.9,29.85,NNE,22,0.0,0.0,95,0.00,,---,1.00,VWS V14.01,2013-07-27 23:05:00,
2013-07-27 18:10:00,75.1,73.6,29.85,NNE,22,0.0,0.0,95,0.00,,---,1.00,VWS V14.01,2013-07-27 23:10:00,
2013-07-27 18:15:00,75.1,73.6,29.85,NNW,338,0.0,0.0,95,0.00,,---,1.00,VWS V14.01,2013-07-27 23:15:00,
2013-07-27 18:20:00,75.1,73.6,29.85,NNW,338,0.0,0.0,95,0.00,,---,1.00,VWS V14.01,2013-07-27 23:20:00,
2013-07-27 18:25:00,75.1,73.6,29.85,NNW,338,0.0,0.0,95,0.00,,---,1.00,VWS V14.01,2013-07-27 23:25:00,
2013-07-27 18:30:00,75.1,73.6,29.85,NNW,338,0.0,0.0,95,0.00,,---,1.00,VWS V14.01,2013-07-27 23:30:00,
2013-07-27 18:35:00,75.1,73.6,29.85,NNW,338,0.0,0.0,95,0.00,,---,1.00,VWS V14.01,2013-07-27 23:35:00,
2013-07-27 18:40:00,75.1,73.9,29.85,NE,45,0.0,0.0,96,0.00,,---,1.00,VWS V14.01,2013-07-27 23:40:00,
2013-07-27 18:45:00,75.5,74.3,29.85,NE,45,0.0,0.0,96,0.00,,---,1.00,VWS V14.01,2013-07-27 23:45:00,
2013-07-27 18:50:00,75.5,74.3,29.85,NNE,22,0.0,0.0,96,0.00,,---,1.00,VWS V14.01,2013-07-27 23:50:00,
2013-07-27 18:55:00,75.5,74.3,29.85,NW,315,0.0,0.0,96,0.00,,---,1.00,VWS V14.01,2013-07-27 23:55:00,
2013-07-27 19:00:00,75.7,74.4,29.85,NW,315,0.0,0.0,96,0.00,,---,1.00,VWS V14.01,2013-07-28 00:00:00,
2013-07-27 19:05:00,75.5,74.3,29.85,NW,315,0.0,0.0,96,0.00,,---,1.00,VWS V14.01,2013-07-28 00:05:00,
2013-07-27 19:10:00,75.5,74.3,29.85,NW,315,0.0,0.0,96,0.00,,---,1.00,VWS V14.01,2013-07-28 00:10:00,
2013-07-27 19:15:00,75.3,74.1,29.85,NW,315,0.0,0.0,96,0.00,,---,1.00,VWS V14.01,2013-07-28 00:15:00,
2013-07-27 19:20:00,75.3,74.1,29.85,NW,315,0.0,0.0,96,0.00,,---,1.00,VWS V14.01,2013-07-28 00:20:00,
2013-07-27 19:25:00,75.3,74.1,29.85,NW,315,0.0,0.0,96,0.00,,---,1.00,VWS V14.01,2013-07-28 00:25:00,
2013-07-27 19:30:00,75.3,74.1,29.85,NW,315,0.0,0.0,96,0.00,,---,1.00,VWS V14.01,2013-07-28 00:30:00,
2013-07-27 19:35:00,75.1,73.9,29.85,NW,315,0.0,0.0,96,0.00,,---,1.00,VWS V14.01,2013-07-28 00:35:00,
2013-07-27 19:40:00,75.1,73.9,29.85,NW,315,0.0,0.0,96,0.00,,---,1.00,VWS V14.01,2013-07-28 00:40:00,
2013-07-27 19:46:00,74.9,73.7,29.85,NW,315,0.0,0.0,96,0.00,,---,1.00,VWS V14.01,2013-07-28 00:46:00,
2013-07-27 19:51:00,74.9,73.7,29.85,NW,315,0.0,0.0,96,0.00,,---,1.00,VWS V14.01,2013-07-28 00:51:00,
2013-07-27 19:56:00,74.8,73.6,29.85,NW,315,0.0,0.0,96,0.00,,---,1.00,VWS V14.01,2013-07-28 00:56:00,
2013-07-27 20:01:00,74.8,73.6,29.85,NW,315,0.0,0.0,96,0.00,,---,1.00,VWS V14.01,2013-07-28 01:01:00,
2013-07-27 20:06:00,74.6,73.4,29.85,NW,315,0.0,0.0,96,0.00,,---,1.00,VWS V14.01,2013-07-28 01:06:00,
2013-07-27 20:11:00,74.4,73.2,29.85,NW,315,0.0,0.0,96,0.00,,---,1.00,VWS V14.01,2013-07-28 01:11:00,
2013-07-27 20:16:00,74.2,73.0,29.88,NW,315,0.0,0.0,96,0.00,,---,1.00,VWS V14.01,2013-07-28 01:16:00,
2013-07-27 20:21:00,74.2,73.0,29.88,NW,315,0.0,0.0,96,0.00,,---,1.00,VWS V14.01,2013-07-28 01:21:00,
2013-07-27 20:26:00,74.2,73.0,29.88,NW,315,0.0,0.0,96,0.00,,---,1.00,VWS V14.01,2013-07-28 01:26:00,
2013-07-27 20:31:00,74.2,73.0,29.85,NW,315,0.0,0.0,96,0.00,,---,1.00,VWS V14.01,2013-07-28 01:31:00,
2013-07-27 20:36:00,74.2,73.0,29.85,NW,315,0.0,0.0,96,0.00,,---,1.00,VWS V14.01,2013-07-28 01:36:00,
2013-07-27 20:41:00,74.0,73.1,29.85,NW,315,0.0,0.0,97,0.00,,---,1.00,VWS V14.01,2013-07-28 01:41:00,
2013-07-27 20:46:00,73.9,73.0,29.85,NW,315,0.0,0.0,97,0.00,,---,1.00,VWS V14.01,2013-07-28 01:46:00,
2013-07-27 20:51:00,73.9,73.0,29.85,NW,315,0.0,0.0,97,0.00,,---,1.00,VWS V14.01,2013-07-28 01:51:00,
2013-07-27 20:56:00,73.7,72.8,29.85,NW,315,0.0,0.0,97,0.00,,---,1.00,VWS V14.01,2013-07-28 01:56:00,
2013-07-27 21:01:00,73.7,72.8,29.85,NW,315,0.0,0.0,97,0.00,,---,1.00,VWS V14.01,2013-07-28 02:01:00,
2013-07-27 21:06:00,73.5,72.6,29.85,NW,315,0.0,0.0,97,0.00,,---,1.00,VWS V14.01,2013-07-28 02:06:00,
2013-07-27 21:11:00,73.5,72.6,29.85,NW,315,0.0,0.0,97,0.00,,---,1.00,VWS V14.01,2013-07-28 02:11:00,
2013-07-27 21:16:00,73.5,72.6,29.88,NW,315,0.0,0.0,97,0.00,,---,1.00,VWS V14.01,2013-07-28 02:16:00,
2013-07-27 21:21:00,73.5,72.6,29.88,NW,315,0.0,0.0,97,0.00,,---,1.00,VWS V14.01,2013-07-28 02:21:00,
2013-07-27 21:26:00,73.5,72.6,29.88,NW,315,0.0,0.0,97,0.00,,---,1.00,VWS V14.01,2013-07-28 02:26:00,
2013-07-27 21:31:00,73.5,72.6,29.85,NW,315,0.0,0.0,97,0.00,,---,1.00,VWS V14.01,2013-07-28 02:31:00,
2013-07-27 21:36:00,73.5,72.6,29.85,NW,315,0.0,0.0,97,0.00,,---,1.00,VWS V14.01,2013-07-28 02:36:00,
2013-07-27 21:42:00,73.0,72.1,29.85,NW,315,0.0,0.0,97,0.00,,---,1.00,VWS V14.01,2013-07-28 02:42:00,
2013-07-27 21:47:00,73.0,72.1,29.88,NW,315,0.0,0.0,97,0.00,,---,1.00,VWS V14.01,2013-07-28 02:47:00,
2013-07-27 21:52:00,73.0,72.1,29.88,NW,315,0.0,0.0,97,0.00,,---,1.00,VWS V14.01,2013-07-28 02:52:00,
2013-07-27 21:57:00,73.0,72.1,29.88,NW,315,0.0,0.0,97,0.00,,---,1.00,VWS V14.01,2013-07-28 02:57:00,
2013-07-27 22:02:00,73.0,72.1,29.88,NW,315,0.0,0.0,97,0.00,,---,1.00,VWS V14.01,2013-07-28 03:02:00,
2013-07-27 22:07:00,73.0,72.1,29.88,NW,315,0.0,0.0,97,0.00,,---,1.00,VWS V14.01,2013-07-28 03:07:00,
2013-07-27 22:12:00,73.0,72.1,29.88,NW,315,0.0,0.0,97,0.00,,---,1.00,VWS V14.01,2013-07-28 03:12:00,
2013-07-27 22:17:00,73.0,72.1,29.88,NW,315,0.0,0.0,97,0.00,,---,1.00,VWS V14.01,2013-07-28 03:17:00,
2013-07-27 22:22:00,73.0,72.1,29.88,NW,315,0.0,0.0,97,0.00,,---,1.00,VWS V14.01,2013-07-28 03:22:00,
2013-07-27 22:27:00,73.0,72.1,29.88,NW,315,0.0,0.0,97,0.00,,---,1.00,VWS V14.01,2013-07-28 03:27:00,
2013-07-27 22:32:00,73.0,72.1,29.88,NW,315,0.0,0.0,97,0.00,,---,1.00,VWS V14.01,2013-07-28 03:32:00,
2013-07-27 22:37:00,73.0,72.1,29.88,NW,315,0.0,0.0,97,0.00,,---,1.00,VWS V14.01,2013-07-28 03:37:00,
2013-07-27 22:42:00,72.1,71.2,29.88,NW,315,0.0,0.0,97,0.00,,---,1.00,VWS V14.01,2013-07-28 03:42:00,
2013-07-27 22:47:00,72.1,71.2,29.88,NW,315,0.0,0.0,97,0.00,,---,1.00,VWS V14.01,2013-07-28 03:47:00,
2013-07-27 22:52:00,72.1,71.2,29.88,NW,315,0.0,0.0,97,0.00,,---,1.00,VWS V14.01,2013-07-28 03:52:00,
2013-07-27 22:57:00,72.1,71.2,29.88,NW,315,0.0,0.0,97,0.00,,---,1.00,VWS V14.01,2013-07-28 03:57:00,
2013-07-27 23:01:00,72.1,71.2,29.88,ESE,112,0.0,0.0,97,0.00,,---,1.00,VWS V14.01,2013-07-28 04:01:00,
2013-07-27 23:02:00,71.9,71.3,29.88,ESE,112,0.0,0.0,98,0.00,,---,1.00,VWS V14.01,2013-07-28 04:02:00,
2013-07-27 23:07:00,71.9,71.3,29.88,SSE,158,0.0,0.0,98,0.00,,---,1.00,VWS V14.01,2013-07-28 04:07:00,
2013-07-27 23:12:00,71.9,71.3,29.88,SSE,158,0.0,0.0,98,0.00,,---,1.00,VWS V14.01,2013-07-28 04:12:00,
2013-07-27 23:17:00,71.9,71.3,29.88,SSE,158,0.0,0.0,98,0.00,,---,1.00,VWS V14.01,2013-07-28 04:17:00,
2013-07-27 23:22:00,71.9,71.3,29.88,ENE,68,0.0,0.0,98,0.00,,---,1.00,VWS V14.01,2013-07-28 04:22:00,
2013-07-27 23:27:00,71.9,71.3,29.88,NNW,338,0.0,0.0,98,0.00,,---,1.00,VWS V14.01,2013-07-28 04:27:00,
2013-07-27 23:32:00,71.9,71.3,29.88,NNW,338,0.0,0.0,98,0.00,,---,1.00,VWS V14.01,2013-07-28 04:32:00,
2013-07-27 23:37:00,71.9,71.3,29.88,NNW,338,0.0,0.0,98,0.00,,---,1.00,VWS V14.01,2013-07-28 04:37:00,
2013-07-27 23:42:00,71.9,71.3,29.88,NNW,338,0.0,0.0,98,0.00,,---,1.00,VWS V14.01,2013-07-28 04:42:00,
2013-07-27 23:47:00,71.9,71.3,29.88,NNW,338,0.0,0.0,98,0.00,,---,1.00,VWS V14.01,2013-07-28 04:47:00,
2013-07-27 23:52:00,71.9,71.3,29.88,NNW,338,0.0,0.0,98,0.00,,---,1.00,VWS V14.01,2013-07-28 04:52:00,
2013-07-27 23:57:00,71.9,71.3,29.88,NNW,338,0.0,0.0,98,0.00,,---,1.00,VWS V14.01,2013-07-28 04:57:00,